Location: Asheville, NC
(35.6000°N, 82.5500°W)
Time: 20:12:39
(UTC-04:00)

Vanguard 3 - Pass Details

Date: 09 March 2018
Orbit: 508 x 3264 km, 33.3° (Epoch: 24 June)

Event Time Altitude Azimuth Distance (km) Brightness Sun altitude
Rises 13:53:13 0° 276° (W) 6,005 11.8 46.6°
Reaches altitude 10° 13:57:54 10° 275° (W) 4,553 11.3 46.2°
Maximum altitude 14:09:11 68° 195° (SSW) 1,378 9.8 45.0°
Drops below altitude 10° 14:15:21 10° 113° (ESE) 2,582 9.8 44.4°
Sets 14:17:21 0° 111° (ESE) 3,299 10.2 44.1°
